[[{"header":{"parameterUnit":"m.s-1","parameterCategory":2,"la1":30.2991,"la2":30.254,"lo1":-89.0895,"lo2":-89.0444,"dy":0.0017,"dx":0.0017,"nx":28,"ny":28,"refTime":"2025-01-26T03:00:00:Z","depth":"0","parameterNumber":2,"parameterNumberName":"U-component_of_CURRENTS"},"data":[0,0,0,0,0,0,0,0,0,0,0,0,0,0,0,0,0,0,0,0,0,0,0,0,0,0,0,0,0,0,0,0,0,0,0,0,0,0,0,0,0,0,0,0,0,0,0,0,0,0,0,0,0,0,0,0,0,0,0.3973,0.3974,0,0.3995,0.3995,0.3995,0.3974,0.3974,0.3973,0.3973,0.3974,0.3974,0.3975,0,0,0,0,0,0,0,0,0,0,0,0,0,0.3876,0.3878,0.3973,0.3974,0.3975,0.3995,0.3995,0.3995,0.3974,0.3974,0.3973,0.3972,0.3974,0.3974,0.3975,0,0,0,0,0,0,0,0,0,0,0,0,0,0.3907,0.3878,0.3973,0.3969,0.397,0.3995,0.3995,0.3995,0.3974,0.3974,0.3973,0.3972,0.3973,0.3974,0.3975,0.3994,0,0,0.3977,0.3977,0,0,0,0,0,0,0,0,0.3905,0.391,0.3969,0.397,0.397,0.3985,0.3961,0.3995,0.3974,0.3968,0.3973,0.3972,0.3978,0.3979,0.3979,0.3994,0.3994,0.3977,0.3977,0.3978,0.3978,0,0,0,0,0,0,0,0.3903,0.3908,0.3978,0.397,0.3971,0.3954,0.3957,0.3967,0.3974,0.3969,0.3968,0.3977,0.3978,0.3979,0.3979,0.3994,0.3977,0.3978,0.3978,0.3978,0.4057,0.4059,0,0,0,0,0,0,0.3911,0.3907,0.3977,0.3979,0.3939,0.3957,0.396,0.3977,0.3974,0.3974,0.3978,0.3976,0.3978,0.3978,0.3979,0.4028,0.3978,0.3978,0.3979,0.4056,0.4058,0.4059,0,0,0,0,0,0,0.3909,0.3918,0.3977,0.3946,0.3952,0.396,0.3979,0.3978,0.3985,0.3982,0.3981,0.3985,0.3977,0.3978,0.3993,0.4027,0.3979,0.3979,0.4054,0.4056,0.4059,0.4108,0,0,0,0,0,0,0.3906,0.3917,0.3932,0.3947,0.3955,0.4001,0.398,0.3979,0.3993,0.3991,0.3988,0.3987,0.3977,0.3992,0.3994,0.4027,0.398,0.4052,0.4055,0.4058,0.4105,0.4112,0.4119,0,0,0,0,0,0.3903,0.3926,0.3933,0.3941,0.3976,0.4002,0.4005,0.4004,0.3994,0.4004,0.3999,0.3987,0.4014,0.3994,0.3996,0.4029,0.405,0.4054,0.4058,0.4102,0.4111,0.4119,0,0,0,0,0,0,0.3891,0.3927,0.3934,0.3967,0.3989,0.4,0.4011,0.4012,0.4017,0.4013,0.4002,0.4001,0.403,0.4025,0.4003,0.4063,0.4034,0.4038,0.4067,0.4075,0.4082,0.412,0.3981,0,0,0,0,0,0.3898,0.3923,0.3954,0.398,0.3994,0.4005,0.4015,0.4019,0.4026,0.4027,0.4027,0.4032,0.4048,0.4055,0.4065,0.4094,0.4167,0.412,0.4128,0.4133,0.4167,0.432,0.4345,0.4072,0.4072,0.4072,0,0,0.3901,0.3924,0.3939,0.3979,0.3993,0.4019,0.4008,0.4032,0.4055,0.4028,0.4054,0.4056,0.4061,0.4093,0.4107,0.4092,0.4247,0.4138,0.4143,0.4174,0.4327,0.4354,0.4378,0.4074,0.4074,0.4073,0,0,0.3913,0.3942,0.3964,0.3986,0.4018,0.4034,0.4045,0.4067,0.4078,0.4104,0.4097,0.4126,0.4134,0.4158,0.4168,0.4225,0.4279,0.4221,0.4289,0.4436,0.4461,0.4484,0.4606,0.4639,0.4225,0.4226,0.4226,0,0.3913,0.3952,0.3973,0.3998,0.4028,0.4043,0.4077,0.4093,0.4116,0.416,0.4119,0.4203,0.4175,0.4266,0.4259,0.4245,0.4335,0.425,0.445,0.4473,0.4496,0.4616,0.4652,0.4228,0.4228,0.4228,0.4227,0,0.3933,0.3973,0.3989,0.4032,0.4064,0.4098,0.4134,0.4176,0.4192,0.4221,0.4313,0.4301,0.4373,0.4348,0.4303,0.4449,0.4463,0.4441,0.4432,0.4527,0.4646,0.4683,0.4232,0.4231,0.4231,0.423,0,0,0.3912,0.3991,0.3995,0.4043,0.4092,0.413,0.4191,0.4277,0.436,0.438,0.4499,0.4493,0.4528,0.4543,0.4525,0.4605,0.4787,0.458,0.4587,0.471,0.5127,0.5047,0.5079,0.4815,0.4822,0.4827,0.5144,0,0.3924,0.3993,0.4024,0.4104,0.4156,0.4213,0.4281,0.4362,0.4429,0.4543,0.4588,0.4675,0.4595,0.464,0.472,0.4774,0.4889,0.4704,0.501,0.5019,0.4945,0.5121,0.4869,0.5124,0.518,0.5187,0.5191,0,0.393,0.3986,0.4064,0.4193,0.4221,0.4267,0.4431,0.4494,0.4651,0.471,0.4838,0.4885,0.5014,0.4917,0.5152,0.5047,0.5106,0.5135,0.5149,0.509,0.501,0.5039,0.5189,0.4999,0.5248,0.5243,0.5239,0,0.393,0.4022,0.4098,0.413,0.426,0.4327,0.4403,0.4552,0.4661,0.4841,0.4964,0.5121,0.5238,0.535,0.5403,0.5316,0.5654,0.5554,0.556,0.5554,0.5408,0.5378,0.5418,0.5767,0.5766,0.5765,0.5764,0,0.3958,0.4023,0.4105,0.4155,0.428,0.4348,0.4509,0.4614,0.4793,0.4957,0.5064,0.5244,0.5357,0.5542,0.5548,0.5695,0.5812,0.5638,0.566,0.5413,0.5381,0.5259,0.5178,0.5777,0.5774,0.5772,0.577,0,0.3988,0.4028,0.4125,0.4243,0.429,0.438,0.457,0.4695,0.4857,0.5087,0.5164,0.5418,0.5647,0.5754,0.5951,0.5908,0.5851,0.6034,0.5717,0.5695,0.5445,0.5376,0.5373,0.5216,0.6105,0.6106,0.6106,0,0.4028,0.4073,0.4181,0.4255,0.4318,0.4453,0.456,0.4712,0.4847,0.5191,0.5311,0.5613,0.5789,0.6066,0.6041,0.6127,0.5918,0.5944,0.5708,0.5459,0.5402,0.5199,0.505,0.5543,0.5539,0.5536,0.5533,0,0.4125,0.4136,0.4223,0.4333,0.4434,0.4551,0.4703,0.48,0.5001,0.5195,0.5447,0.5613,0.5873,0.5851,0.5971,0.5964,0.5625,0.5873,0.572,0.5077,0.4761,0.4607,0.5294,0.5501,0.5504,0.5507,0.5508,0.551,0.4203,0.4252,0.4327,0.4435,0.4542,0.4618,0.4657,0.4804,0.4967,0.5147,0.5397,0.551,0.5606,0.5714,0.5703,0.5451,0.5446,0.5225,0.5206,0.5056,0.4755,0.5364,0.5512,0.5515,0.5518,0.552,0.5522,0,0.4276,0.4325,0.4436,0.4519,0.4594,0.4634,0.4735,0.4704,0.479,0.4972,0.5116,0.5123,0.5127,0.5142,0.4995,0.4793,0.4566,0.464,0.4273,0.4191,0.4839,0.4655,0.4494,0.4494,0.4494,0.4495,0.4495,0.4495,0.4334,0.44,0.4416,0.4521,0.4579,0.4538,0.4531,0.4474,0.4515,0.4461,0.441,0.4476,0.4595,0.4622,0.4388,0.4278,0.393,0.3764,0.3783,0.4191,0.424,0.4287,0.4092,0.3816,0.3815,0.2912,0.2905,0.29]},{"header":{"parameterUnit":"m.s-1","parameterCategory":2,"la1":30.2991,"la2":30.254,"lo1":-89.0895,"lo2":-89.0444,"dy":0.0017,"dx":0.0017,"nx":28,"ny":28,"refTime":"2025-01-26T03:00:00:Z","depth":"0","parameterNumber":3,"parameterNumberName":"V-component_of_CURRENTS"},"data":[0,0,0,0,0,0,0,0,0,0,0,0,0,0,0,0,0,0,0,0,0,0,0,0,0,0,0,0,0,0,0,0,0,0,0,0,0,0,0,0,0,0,0,0,0,0,0,0,0,0,0,0,0,0,0,0,0,0,0.0223,0.0223,0,0.0169,0.0168,0.0167,0.0112,0.0111,0.0111,0.011,0.0003,0.0001,-0.0001,0,0,0,0,0,0,0,0,0,0,0,0,0,0.0209,0.021,0.0223,0.0223,0.0222,0.0169,0.0168,0.0167,0.0112,0.0111,0.0111,0.011,0.0004,0.0001,-0.0002,0,0,0,0,0,0,0,0,0,0,0,0,0,0.0188,0.021,0.0223,0.0191,0.0188,0.0169,0.0168,0.0166,0.0112,0.0111,0.0111,0.011,0.0005,0.0002,-0.0002,-0.0011,0,0,-0.0013,-0.0015,0,0,0,0,0,0,0,0,0.0189,0.0188,0.0196,0.0193,0.019,0.0149,0.0124,0.0105,0.0112,0.0137,0.011,0.011,0.005,0.0043,0.003,-0.0017,-0.0021,-0.0014,-0.0016,-0.0017,-0.0018,0,0,0,0,0,0,0,0.0191,0.019,0.0198,0.0196,0.0192,0.0155,0.0152,0.0119,0.0094,0.0135,0.0132,0.0131,0.0047,0.0033,0.0027,-0.0023,-0.0013,-0.0017,-0.0019,-0.002,-0.0073,-0.0073,0,0,0,0,0,0,0.0209,0.0192,0.02,0.0197,0.0192,0.0157,0.0153,0.016,0.0096,0.0087,0.0132,0.0129,0.004,0.0031,0.0023,0.003,-0.0017,-0.0021,-0.0023,-0.0074,-0.0073,-0.0072,0,0,0,0,0,0,0.0209,0.0211,0.0202,0.0195,0.0192,0.0159,0.0167,0.016,0.015,0.0095,0.0084,0.0131,0.0039,0.0028,0.0003,0.0025,-0.0022,-0.0026,-0.0075,-0.0074,-0.0073,0.0031,0,0,0,0,0,0,0.0209,0.0211,0.0219,0.0197,0.0193,0.0205,0.0168,0.0159,0.0152,0.0147,0.009,0.0079,0.0038,0.0009,-0.0,0.0019,-0.0029,-0.0076,-0.0075,-0.0073,0.0027,0.0036,0.0043,0,0,0,0,0,0.0209,0.0235,0.022,0.0221,0.0207,0.0206,0.0201,0.0172,0.0153,0.0158,0.0117,0.0081,0.0012,0.0007,-0.0004,0.0014,-0.0077,-0.0075,-0.0073,0.0023,0.0034,0.0043,0,0,0,0,0,0,0.0236,0.0231,0.0215,0.0238,0.0226,0.0199,0.0201,0.0181,0.0153,0.0145,0.0089,0.0076,0.006,0.0024,0.002,0.0003,-0.0038,-0.0038,0.0039,0.0049,0.0057,0.0092,-0.0032,0,0,0,0,0,0.0247,0.0261,0.0247,0.0263,0.0261,0.0231,0.0225,0.0208,0.0182,0.0169,0.0131,0.0089,0.0059,0.0044,0.0007,0.0001,-0.0007,0.0005,0.0014,0.0021,0.0042,0.0056,0.0068,-0.0067,-0.0067,-0.0067,0,0,0.0262,0.026,0.0268,0.0269,0.0254,0.0269,0.0225,0.0227,0.0241,0.0162,0.0163,0.0114,0.0061,0.0052,0.0042,0.0026,0.0054,0.0023,0.003,0.0047,0.0059,0.0073,0.0085,-0.0065,-0.0066,-0.0066,0,0,0.0308,0.0299,0.0327,0.0325,0.0316,0.0299,0.0306,0.0284,0.0275,0.0267,0.0215,0.0188,0.0137,0.0113,0.0092,0.0126,0.0094,0.0107,0.0184,0.0198,0.021,0.022,0.0229,0.024,0.0117,0.0117,0.0118,0,0.0325,0.0362,0.0334,0.0361,0.0371,0.0322,0.0357,0.0343,0.0316,0.0328,0.0281,0.0237,0.0172,0.019,0.0182,0.0148,0.0149,0.0151,0.0212,0.0222,0.023,0.0238,0.0248,0.0123,0.0122,0.0121,0.0121,0,0.0392,0.042,0.0438,0.0456,0.0459,0.0482,0.0463,0.0469,0.0442,0.043,0.0435,0.0357,0.0346,0.0305,0.0241,0.0278,0.0256,0.0219,0.0194,0.0251,0.0254,0.0263,0.013,0.0128,0.0127,0.0125,0,0,0.0441,0.0481,0.0487,0.0526,0.0515,0.054,0.056,0.0585,0.0642,0.058,0.0654,0.0549,0.0521,0.0495,0.0427,0.0407,0.0438,0.0338,0.0337,0.0362,0.0475,0.0428,0.0433,0.0416,0.0418,0.0419,0.0454,0,0.0504,0.0595,0.0581,0.0663,0.0714,0.0683,0.0727,0.0738,0.0733,0.079,0.0717,0.0747,0.0595,0.061,0.0563,0.0486,0.0466,0.0432,0.0404,0.0403,0.0366,0.0443,0.04,0.0425,0.0462,0.0463,0.0465,0,0.0578,0.0635,0.0729,0.0813,0.0832,0.0869,0.0952,0.0985,0.1024,0.1029,0.103,0.0988,0.0963,0.0828,0.0733,0.0723,0.0606,0.0521,0.052,0.045,0.0373,0.0371,0.0439,0.0173,0.0478,0.0476,0.0476,0,0.0662,0.0743,0.0831,0.0854,0.0927,0.0977,0.102,0.1067,0.1145,0.1209,0.129,0.1227,0.126,0.1101,0.0898,0.0835,0.0795,0.0698,0.0547,0.0542,0.0487,0.0475,0.0308,0.0634,0.0634,0.0634,0.0634,0,0.0753,0.0832,0.0889,0.0948,0.1085,0.109,0.1241,0.1278,0.1376,0.1525,0.144,0.1565,0.133,0.127,0.1023,0.0837,0.0904,0.0589,0.056,0.052,0.051,0.0258,0.011,0.0635,0.0635,0.0635,0.0635,0,0.0849,0.0876,0.0994,0.1088,0.1133,0.1237,0.1393,0.1507,0.1585,0.1789,0.1834,0.1856,0.1793,0.1532,0.1316,0.105,0.0688,0.0744,0.0708,0.0673,0.0246,0.0108,-0.0057,-0.0157,0.0595,0.0594,0.0594,0,0.0916,0.0982,0.1104,0.1186,0.1238,0.1389,0.1504,0.1605,0.1739,0.1988,0.2108,0.2139,0.2199,0.1864,0.1397,0.1005,0.0719,0.0678,0.0523,0.0244,0.0069,-0.0035,-0.0115,0.0493,0.0492,0.0491,0.049,0,0.1042,0.1064,0.1154,0.1313,0.1439,0.1606,0.1782,0.1927,0.2092,0.2307,0.2575,0.2666,0.2374,0.1992,0.1428,0.1113,0.048,0.064,0.0371,0.0,-0.0138,-0.0255,0.0441,0.0479,0.048,0.0481,0.0482,0.0482,0.1121,0.1192,0.1281,0.144,0.1591,0.1794,0.197,0.2187,0.2469,0.2814,0.2889,0.3086,0.2463,0.1712,0.1281,0.0388,0.042,0.0088,-0.0044,-0.0113,-0.0257,0.0413,0.0398,0.0398,0.0399,0.0399,0.04,0,0.1187,0.126,0.1408,0.1586,0.1772,0.1838,0.2132,0.2335,0.2702,0.3031,0.3292,0.3058,0.2326,0.1533,0.0339,-0.0214,-0.0416,-0.0519,-0.0698,-0.0737,-0.0123,-0.018,-0.0344,-0.0344,-0.0344,-0.0344,-0.0343,-0.0343,0.1222,0.1331,0.1397,0.1689,0.1845,0.2111,0.2295,0.262,0.29,0.3284,0.3399,0.3437,0.268,0.0715,-0.0587,-0.0854,-0.123,-0.132,-0.1456,-0.1097,-0.1051,-0.1008,-0.1098,-0.1451,-0.1453,-0.2023,-0.2029,-0.2034]}],[{"header":{"parameterUnit":"m.s-1","parameterCategory":2,"la1":30.2991,"la2":30.254,"lo1":-89.0895,"lo2":-89.0444,"dy":0.0017,"dx":0.0017,"nx":28,"ny":28,"refTime":"2025-01-26T03:00:00:Z","depth":"2","parameterNumber":2,"parameterNumberName":"U-component_of_CURRENTS"},"data":[0,0,0,0,0,0,0,0,0,0,0,0,0,0,0,0,0,0,0,0,0,0,0,0,0,0,0,0,0,0,0,0,0,0,0,0,0,0,0,0,0,0,0,0,0,0,0,0,0,0,0,0,0,0,0,0,0,0,0.3058,0.3059,0,0.3117,0.3118,0.3118,0.3131,0.313,0.313,0.313,0.3153,0.3154,0.3155,0,0,0,0,0,0,0,0,0,0,0,0,0,0.2968,0.2969,0.3058,0.3059,0.306,0.3117,0.3118,0.3118,0.3131,0.313,0.313,0.313,0.3153,0.3154,0.3155,0,0,0,0,0,0,0,0,0,0,0,0,0,0.3012,0.297,0.3058,0.3075,0.3077,0.3117,0.3118,0.3118,0.3131,0.313,0.313,0.313,0.3153,0.3154,0.3155,0.3167,0,0,0.3158,0.3159,0,0,0,0,0,0,0,0,0.301,0.3015,0.3072,0.3074,0.3077,0.3119,0.3095,0.3134,0.3131,0.3107,0.313,0.313,0.314,0.3143,0.3151,0.3168,0.3169,0.3158,0.3159,0.316,0.316,0,0,0,0,0,0,0,0.3007,0.3013,0.3078,0.3073,0.3076,0.3085,0.309,0.3102,0.3122,0.3109,0.3111,0.3123,0.3141,0.3149,0.3151,0.317,0.3158,0.3159,0.316,0.3161,0.3259,0.326,0,0,0,0,0,0,0.3005,0.301,0.3076,0.308,0.3045,0.3087,0.3093,0.3103,0.3122,0.3126,0.3123,0.3123,0.3148,0.315,0.3152,0.3214,0.316,0.3161,0.3161,0.3257,0.3259,0.3261,0,0,0,0,0,0,0.3003,0.301,0.3074,0.3049,0.3058,0.3089,0.31,0.3105,0.3127,0.3133,0.3136,0.3142,0.3148,0.315,0.3181,0.3213,0.3161,0.3162,0.3254,0.3257,0.326,0.3308,0,0,0,0,0,0,0.3,0.3009,0.3021,0.3049,0.3059,0.3106,0.3101,0.3106,0.3135,0.3136,0.3151,0.3152,0.3148,0.3179,0.3182,0.3214,0.3163,0.3252,0.3256,0.3259,0.3304,0.3312,0.3319,0,0,0,0,0,0.2997,0.3012,0.3021,0.303,0.3073,0.3107,0.3113,0.3132,0.3136,0.315,0.3165,0.3152,0.3204,0.3181,0.3184,0.3217,0.325,0.3255,0.3259,0.3301,0.3311,0.3319,0,0,0,0,0,0,0.298,0.3016,0.3026,0.3053,0.3083,0.3111,0.3128,0.3143,0.3166,0.317,0.3171,0.3174,0.3217,0.3212,0.3188,0.3259,0.3228,0.3233,0.3259,0.3268,0.3275,0.3295,0.3164,0,0,0,0,0,0.2983,0.3006,0.3039,0.3063,0.3076,0.3105,0.3124,0.3141,0.3165,0.3175,0.3189,0.3209,0.3236,0.3247,0.3267,0.3299,0.334,0.3325,0.3333,0.3339,0.3359,0.3455,0.3473,0.3275,0.3275,0.3275,0,0,0.2982,0.3008,0.302,0.3062,0.3083,0.3112,0.3115,0.3151,0.318,0.3174,0.3217,0.3237,0.3253,0.3295,0.3313,0.3293,0.3419,0.3345,0.335,0.3366,0.3461,0.3481,0.3498,0.3278,0.3277,0.3277,0,0,0.2991,0.3016,0.3035,0.3065,0.3109,0.3128,0.3142,0.3181,0.3202,0.3245,0.3258,0.3303,0.3329,0.3358,0.3372,0.3436,0.346,0.344,0.3488,0.3581,0.3598,0.3614,0.3698,0.3721,0.3438,0.3438,0.3439,0,0.299,0.3021,0.3046,0.3078,0.3109,0.3136,0.3168,0.3194,0.3242,0.3281,0.3264,0.3366,0.3364,0.3445,0.3459,0.3454,0.3511,0.3447,0.3592,0.3608,0.3623,0.3706,0.3731,0.3441,0.3441,0.3441,0.344,0,0.3012,0.3044,0.3061,0.3108,0.3143,0.3177,0.3219,0.3259,0.3288,0.333,0.3422,0.3441,0.3511,0.3511,0.3495,0.3609,0.3616,0.3594,0.3567,0.3646,0.3728,0.3753,0.3445,0.3444,0.3443,0.3443,0,0,0.2987,0.306,0.3066,0.3105,0.3166,0.3202,0.3254,0.3326,0.3394,0.3439,0.3541,0.3577,0.362,0.3641,0.3649,0.3707,0.3844,0.3694,0.3697,0.3777,0.4064,0.3934,0.3949,0.3853,0.3857,0.3861,0.408,0,0.2996,0.3053,0.3092,0.3161,0.3195,0.3254,0.331,0.3387,0.345,0.3554,0.3611,0.3707,0.3661,0.3716,0.3771,0.3836,0.3912,0.3788,0.3977,0.3983,0.3857,0.3973,0.3647,0.3803,0.4104,0.4108,0.4111,0,0.2999,0.3043,0.3103,0.3208,0.3231,0.3283,0.3405,0.3468,0.3606,0.3664,0.3775,0.3838,0.3955,0.3896,0.4068,0.3997,0.4044,0.4074,0.4084,0.3964,0.3899,0.3773,0.3837,0.4153,0.415,0.4147,0.4144,0,0.297,0.3055,0.3108,0.3143,0.3255,0.3313,0.3382,0.351,0.3598,0.3764,0.3867,0.3997,0.4107,0.4181,0.4233,0.4183,0.4409,0.4352,0.4288,0.428,0.4039,0.4001,0.4491,0.4491,0.449,0.449,0.4489,0,0.2969,0.3017,0.3106,0.3144,0.3233,0.3321,0.3447,0.3531,0.3695,0.3805,0.3942,0.4046,0.4188,0.4315,0.4324,0.4388,0.4499,0.4335,0.434,0.4044,0.4006,0.4325,0.4302,0.4498,0.4496,0.4494,0.4493,0,0.2944,0.2994,0.3073,0.3189,0.3224,0.3303,0.3474,0.3568,0.373,0.3885,0.3955,0.4163,0.4314,0.4432,0.4575,0.4519,0.4572,0.4562,0.42,0.4155,0.4365,0.4343,0.4546,0.4543,0.4541,0.4539,0.4538,0,0.2938,0.2974,0.3088,0.3123,0.3182,0.3301,0.3376,0.3556,0.3624,0.3904,0.3944,0.421,0.4302,0.4499,0.4466,0.4526,0.4587,0.4233,0.4056,0.4393,0.4378,0.4359,0.434,0.3776,0.3769,0.3763,0.3758,0,0.2931,0.2974,0.3022,0.308,0.316,0.3248,0.334,0.3407,0.3597,0.3725,0.3862,0.4,0.4226,0.4131,0.4235,0.4193,0.4189,0.4106,0.4606,0.3784,0.3677,0.3658,0.3664,0.3702,0.3708,0.3712,0.3715,0.3717,0.2907,0.2923,0.2959,0.3008,0.3076,0.3103,0.3129,0.3213,0.3297,0.3409,0.362,0.3715,0.383,0.3809,0.3718,0.3666,0.3931,0.3751,0.3767,0.379,0.3633,0.3525,0.3494,0.3498,0.3502,0.3505,0.3508,0,0.2838,0.2835,0.287,0.289,0.2865,0.2974,0.3017,0.2981,0.297,0.3152,0.3245,0.308,0.3092,0.3223,0.3062,0.3067,0.3012,0.2947,0.2842,0.2901,0.2953,0.2748,0.2378,0.2374,0.237,0.2366,0,0,0.2799,0.2754,0.2744,0.2629,0.2648,0.2574,0.2563,0.2564,0.2612,0.2591,0.2641,0.2946,0.3129,0.2695,0.266,0.2491,0.2666,0.2402,0.3319,0.3255,0.3301,0.3442,0.3196,0,0,0,0,0]},{"header":{"parameterUnit":"m.s-1","parameterCategory":2,"la1":30.2991,"la2":30.254,"lo1":-89.0895,"lo2":-89.0444,"dy":0.0017,"dx":0.0017,"nx":28,"ny":28,"refTime":"2025-01-26T03:00:00:Z","depth":"2","parameterNumber":3,"parameterNumberName":"V-component_of_CURRENTS"},"data":[0,0,0,0,0,0,0,0,0,0,0,0,0,0,0,0,0,0,0,0,0,0,0,0,0,0,0,0,0,0,0,0,0,0,0,0,0,0,0,0,0,0,0,0,0,0,0,0,0,0,0,0,0,0,0,0,0,0,0.009,0.0089,0,0.004,0.0039,0.0039,-0.0004,-0.0004,-0.0004,-0.0004,-0.0096,-0.0098,-0.01,0,0,0,0,0,0,0,0,0,0,0,0,0,0.0079,0.008,0.009,0.0089,0.0089,0.004,0.0039,0.0038,-0.0004,-0.0004,-0.0004,-0.0005,-0.0095,-0.0098,-0.01,0,0,0,0,0,0,0,0,0,0,0,0,0,0.006,0.008,0.009,0.0064,0.0061,0.004,0.0039,0.0038,-0.0003,-0.0004,-0.0004,-0.0005,-0.0094,-0.0097,-0.0101,-0.0112,0,0,-0.0111,-0.0112,0,0,0,0,0,0,0,0,0.0061,0.006,0.0068,0.0065,0.0062,0.0026,0.0002,-0.0013,-0.0003,0.0019,-0.0004,-0.0005,-0.0057,-0.0064,-0.0074,-0.0117,-0.012,-0.0111,-0.0113,-0.0114,-0.0115,0,0,0,0,0,0,0,0.0063,0.0062,0.0068,0.0067,0.0064,0.0031,0.0028,-0.0001,-0.0019,0.0017,0.0014,0.0012,-0.006,-0.0071,-0.0077,-0.0122,-0.0111,-0.0114,-0.0116,-0.0117,-0.0173,-0.0173,0,0,0,0,0,0,0.0077,0.0064,0.007,0.0067,0.0063,0.0032,0.0028,0.0036,-0.0018,-0.0025,0.0012,0.001,-0.0065,-0.0073,-0.008,-0.0079,-0.0114,-0.0117,-0.0119,-0.0174,-0.0173,-0.0173,0,0,0,0,0,0,0.0077,0.0079,0.0072,0.0065,0.0062,0.0033,0.0042,0.0036,0.0027,-0.002,-0.0029,0.0011,-0.0066,-0.0076,-0.0096,-0.0084,-0.0119,-0.0122,-0.0174,-0.0174,-0.0173,-0.0088,0,0,0,0,0,0,0.0078,0.0079,0.0087,0.0066,0.0063,0.0071,0.0042,0.0035,0.0027,0.0024,-0.0024,-0.0033,-0.0067,-0.0091,-0.01,-0.0089,-0.0124,-0.0175,-0.0174,-0.0173,-0.0091,-0.0084,-0.0078,0,0,0,0,0,0.0077,0.0099,0.0088,0.0089,0.0076,0.0072,0.0067,0.0042,0.0028,0.0032,-0.0,-0.0032,-0.0092,-0.0093,-0.0103,-0.0093,-0.0175,-0.0174,-0.0173,-0.0094,-0.0086,-0.0079,0,0,0,0,0,0,0.0099,0.0096,0.0084,0.0103,0.0091,0.0066,0.0066,0.005,0.0027,0.0022,-0.0025,-0.0036,-0.005,-0.0083,-0.0083,-0.0108,-0.0139,-0.014,-0.0076,-0.0068,-0.0062,-0.0039,-0.0127,0,0,0,0,0,0.0109,0.0122,0.0108,0.0122,0.0119,0.0093,0.0087,0.0072,0.0051,0.004,0.0008,-0.0028,-0.0054,-0.0069,-0.01,-0.0111,-0.0143,-0.0112,-0.0106,-0.01,-0.0089,-0.0122,-0.0117,-0.0169,-0.0169,-0.0169,0,0,0.012,0.012,0.0126,0.0126,0.0113,0.0125,0.0088,0.0087,0.0096,0.0033,0.0033,-0.0007,-0.0053,-0.0064,-0.0074,-0.0089,-0.0103,-0.0099,-0.0093,-0.0085,-0.0121,-0.0115,-0.0111,-0.0169,-0.0169,-0.0169,0,0,0.0154,0.015,0.0172,0.0171,0.0162,0.0148,0.0153,0.0133,0.0123,0.0115,0.0074,0.0048,0.0004,-0.0021,-0.004,-0.0018,-0.0069,-0.0032,0.002,-0.0012,-0.0008,-0.0005,-0.004,-0.004,-0.0028,-0.0028,-0.0028,0,0.0166,0.0197,0.0177,0.0199,0.0207,0.0167,0.0194,0.018,0.0155,0.0155,0.0125,0.0073,0.0028,0.0023,0.0025,-0.0002,-0.0031,-0.0003,-0.0002,0.0,0.0002,-0.0035,-0.0037,-0.0024,-0.0024,-0.0025,-0.0025,0,0.0219,0.0242,0.0256,0.0273,0.0276,0.0293,0.0276,0.0273,0.025,0.0233,0.0219,0.0159,0.0131,0.0107,0.007,0.0067,0.0038,0.001,-0.0017,0.0013,-0.0029,-0.0032,-0.0018,-0.0019,-0.002,-0.0021,0,0,0.0254,0.0288,0.0293,0.0322,0.032,0.0336,0.0346,0.0352,0.0375,0.0327,0.035,0.0284,0.0248,0.0223,0.0173,0.0138,0.0116,0.0085,0.0081,0.0059,0.0043,-0.0015,-0.0025,0.0088,0.0088,0.0088,0.0008,0,0.0302,0.0369,0.0367,0.0428,0.0463,0.0439,0.0463,0.0459,0.044,0.0449,0.0382,0.0381,0.0295,0.0289,0.0238,0.0155,0.0112,0.014,0.0009,0.0005,-0.0042,-0.0029,0.0005,-0.0066,0.0004,0.0004,0.0003,0,0.0355,0.0397,0.0468,0.0526,0.0539,0.0566,0.0602,0.0622,0.0609,0.0598,0.0566,0.0514,0.0463,0.0387,0.0251,0.0274,0.0166,0.0088,0.0083,-0.0001,-0.0058,-0.0087,-0.0075,-0.0003,-0.0002,-0.0002,-0.0001,0,0.0403,0.047,0.0534,0.0553,0.0604,0.0633,0.0661,0.0667,0.0714,0.0702,0.073,0.0638,0.0623,0.0473,0.0292,0.0277,0.0137,0.0096,-0.006,-0.0065,-0.0077,-0.0084,-0.0003,-0.0003,-0.0003,-0.0003,-0.0002,0,0.0462,0.0515,0.0567,0.0607,0.0699,0.0706,0.0799,0.0805,0.0846,0.0916,0.0822,0.0849,0.0645,0.0533,0.0342,0.0133,0.0169,-0.0046,-0.0088,-0.0049,-0.0052,-0.0029,-0.0031,-0.0006,-0.0005,-0.0004,-0.0004,0,0.0508,0.0536,0.0625,0.0697,0.0727,0.0798,0.091,0.0984,0.1001,0.1088,0.1098,0.1026,0.0877,0.065,0.0415,0.022,0.0011,-0.0077,-0.0022,-0.0057,-0.0184,-0.018,-0.025,-0.0253,-0.0255,-0.0257,-0.0258,0,0.0539,0.0587,0.0697,0.0763,0.0803,0.091,0.0997,0.1057,0.1141,0.1194,0.1247,0.1145,0.1085,0.0717,0.0361,0.0023,-0.0013,-0.018,-0.0215,-0.0174,-0.0208,-0.0201,-0.0195,-0.0196,-0.0197,-0.0198,-0.0198,0,0.0605,0.0639,0.0716,0.0853,0.0957,0.1086,0.1205,0.1306,0.1379,0.145,0.1509,0.1469,0.112,0.0787,0.0313,0.0078,-0.0129,-0.0209,-0.0165,-0.0145,-0.0132,-0.0162,-0.0156,-0.0205,-0.0205,-0.0204,-0.0204,-0.0203,0.0654,0.0719,0.0821,0.0955,0.1078,0.1241,0.1373,0.1505,0.1659,0.177,0.1696,0.1649,0.1242,0.0656,0.0239,-0.0188,-0.0176,-0.0325,-0.0318,-0.0312,-0.0298,-0.029,-0.039,-0.0391,-0.0391,-0.0391,-0.0392,0,0.0714,0.0791,0.0917,0.1081,0.1233,0.1286,0.1497,0.1631,0.1829,0.1906,0.194,0.156,0.1174,0.0726,0.0088,-0.0312,-0.032,-0.0429,-0.0346,-0.0337,-0.033,-0.0314,-0.0412,-0.0413,-0.0414,-0.0415,0,0,0.0751,0.0868,0.0935,0.1179,0.1305,0.1515,0.1652,0.1837,0.195,0.2041,0.2013,0.1892,0.1332,0.0865,0.0321,-0.0033,-0.0085,-0.0103,-0.0048,0.0123,0.0136,-0.0237,-0.02,0,0,0,0,0]}],[{"header":{"parameterUnit":"m.s-1","parameterCategory":2,"la1":30.2991,"la2":30.254,"lo1":-89.0895,"lo2":-89.0444,"dy":0.0017,"dx":0.0017,"nx":28,"ny":28,"refTime":"2025-01-26T03:00:00:Z","depth":"4","parameterNumber":2,"parameterNumberName":"U-component_of_CURRENTS"},"data":[0,0,0,0,0,0,0,0,0,0,0,0,0,0,0,0,0,0,0,0,0,0,0,0,0,0,0,0,0,0,0,0,0,0,0,0,0,0,0,0,0,0,0,0,0,0,0,0,0,0,0,0,0,0,0,0,0,0,0.1927,0.1928,0,0.2022,0.2023,0.2024,0.2096,0.2097,0.2098,0.2098,0.2192,0.2194,0.2195,0,0,0,0,0,0,0,0,0,0,0,0,0,0.1807,0.1808,0.1926,0.1928,0.1929,0.2022,0.2023,0.2024,0.2096,0.2097,0.2098,0.2099,0.2191,0.2193,0.2195,0,0,0,0,0,0,0,0,0,0,0,0,0,0.1874,0.1809,0.1926,0.1978,0.1983,0.2022,0.2023,0.2024,0.2095,0.2097,0.2098,0.2099,0.2191,0.2193,0.2196,0.2186,0,0,0.2204,0.2205,0,0,0,0,0,0,0,0,0.187,0.1878,0.1969,0.1974,0.1981,0.205,0.2015,0.2079,0.2095,0.2051,0.2098,0.21,0.2145,0.2151,0.2163,0.219,0.2194,0.2204,0.2205,0.2206,0.2207,0,0,0,0,0,0,0,0.1865,0.1874,0.1962,0.197,0.1978,0.1996,0.2007,0.2027,0.2088,0.2055,0.2061,0.2074,0.2148,0.2161,0.2166,0.2196,0.2204,0.2206,0.2208,0.2209,0.2351,0.2354,0,0,0,0,0,0,0.1857,0.187,0.1959,0.1965,0.193,0.1998,0.201,0.2025,0.2088,0.2099,0.2073,0.2077,0.2156,0.2163,0.217,0.2276,0.2206,0.2209,0.221,0.2349,0.2352,0.2354,0,0,0,0,0,0,0.1854,0.1864,0.1955,0.1921,0.1935,0.1999,0.2015,0.2026,0.2082,0.2102,0.2113,0.2123,0.2157,0.2166,0.2232,0.2276,0.221,0.2212,0.2347,0.235,0.2353,0.2415,0,0,0,0,0,0,0.185,0.1862,0.1888,0.1921,0.1936,0.2003,0.2014,0.2027,0.2087,0.2095,0.2148,0.2155,0.2159,0.2228,0.2235,0.2278,0.2214,0.2344,0.2348,0.2352,0.2411,0.2421,0.2429,0,0,0,0,0,0.1845,0.1869,0.1888,0.19,0.1964,0.2005,0.2015,0.2062,0.2089,0.2117,0.2162,0.2156,0.226,0.2232,0.2239,0.2284,0.2342,0.2347,0.2352,0.2406,0.2419,0.2429,0,0,0,0,0,0,0.1833,0.1879,0.1901,0.194,0.1982,0.2019,0.2057,0.2085,0.2143,0.2165,0.2182,0.2193,0.2268,0.2269,0.2238,0.234,0.2301,0.2308,0.234,0.2352,0.2361,0.2357,0.2216,0,0,0,0,0,0.184,0.1873,0.1915,0.1952,0.1977,0.2025,0.2056,0.2089,0.2135,0.2164,0.2202,0.2246,0.2286,0.2315,0.2346,0.2398,0.2407,0.2434,0.2443,0.2451,0.2454,0.2525,0.2541,0.2371,0.2371,0.2371,0,0,0.1845,0.1878,0.1897,0.1953,0.1993,0.2032,0.2048,0.2109,0.2151,0.2163,0.2246,0.2282,0.2308,0.2372,0.2406,0.2384,0.2503,0.2457,0.2464,0.2463,0.2533,0.2549,0.2564,0.2375,0.2374,0.2373,0,0,0.1859,0.1905,0.1934,0.1972,0.2039,0.2068,0.2094,0.2156,0.22,0.2271,0.2297,0.2362,0.2421,0.2452,0.2471,0.255,0.2551,0.2569,0.2613,0.2683,0.2697,0.271,0.2731,0.2746,0.2572,0.2573,0.2573,0,0.1867,0.1909,0.195,0.1989,0.2027,0.2088,0.2128,0.2175,0.2254,0.2299,0.231,0.2433,0.2455,0.2532,0.2563,0.2571,0.2599,0.2565,0.2694,0.2707,0.2719,0.2738,0.2753,0.2576,0.2576,0.2575,0.2575,0,0.1891,0.1941,0.1966,0.2033,0.2076,0.2128,0.2189,0.2255,0.2317,0.2366,0.2474,0.2514,0.2589,0.2608,0.261,0.2711,0.27,0.2698,0.2661,0.274,0.2755,0.277,0.2581,0.258,0.2579,0.2578,0,0,0.1867,0.1964,0.1977,0.2014,0.2109,0.2139,0.2226,0.2313,0.2387,0.2469,0.2558,0.2635,0.2681,0.2705,0.2728,0.2782,0.2883,0.2783,0.2785,0.2796,0.3021,0.2833,0.283,0.2919,0.2922,0.2924,0.2993,0,0.188,0.1946,0.1998,0.2071,0.2109,0.2193,0.2267,0.2358,0.2447,0.2549,0.2618,0.2714,0.2711,0.2766,0.2824,0.2885,0.2927,0.2863,0.2951,0.2952,0.277,0.2843,0.2935,0.3003,0.3007,0.3009,0.3011,0,0.1882,0.1928,0.1997,0.2095,0.2124,0.2183,0.2317,0.2393,0.2544,0.2623,0.2734,0.2794,0.2904,0.288,0.3017,0.2987,0.3009,0.3032,0.3035,0.2846,0.2791,0.2914,0.3036,0.3034,0.3032,0.3031,0.3029,0,0.1823,0.1925,0.198,0.2014,0.2136,0.2197,0.2277,0.2425,0.251,0.2684,0.2765,0.29,0.2987,0.3055,0.3113,0.3091,0.3236,0.3207,0.3045,0.3031,0.3151,0.3136,0.3282,0.3282,0.3282,0.3282,0.3282,0,0.1795,0.1842,0.1965,0.1991,0.2075,0.2175,0.2292,0.24,0.2566,0.2658,0.2804,0.2882,0.3044,0.3134,0.3158,0.3148,0.3281,0.3057,0.3045,0.3172,0.316,0.3159,0.3144,0.3285,0.3284,0.3284,0.3283,0,0.171,0.1798,0.1868,0.2003,0.2049,0.2113,0.2285,0.2357,0.2543,0.2664,0.2724,0.2924,0.304,0.3147,0.3269,0.3189,0.3203,0.3156,0.3278,0.3271,0.2933,0.2921,0.2976,0.297,0.2965,0.2961,0.2957,0,0.1664,0.1694,0.1848,0.1886,0.1951,0.2063,0.213,0.2329,0.2397,0.2647,0.267,0.2866,0.2965,0.2994,0.3122,0.3158,0.3118,0.3093,0.3005,0.2923,0.2907,0.2903,0.2897,0.2949,0.2948,0.2947,0.2945,0,0.1564,0.1646,0.1703,0.1777,0.1852,0.1928,0.2034,0.2082,0.229,0.2478,0.257,0.2649,0.2772,0.2874,0.2934,0.2945,0.3098,0.304,0.3049,0.2966,0.2892,0.288,0.288,0.2928,0.2931,0.2932,0.2933,0,0.1493,0.1503,0.1579,0.1639,0.1722,0.1742,0.184,0.1914,0.2026,0.2298,0.2323,0.2535,0.2734,0.2763,0.2812,0.2826,0.2775,0.267,0.2697,0.2718,0.2604,0.2471,0.2373,0,0,0,0,0,0.1393,0.1371,0.1412,0.146,0.1542,0.1587,0.1732,0.1836,0.2044,0.2045,0.2186,0.2285,0.2397,0.2518,0.2482,0.2684,0.2773,0.2628,0.2663,0.2833,0.2853,0.2744,0,0,0,0,0,0,0.1312,0.133,0.1348,0.1299,0.1298,0.1356,0.1451,0.1603,0.1625,0.186,0.1944,0.2123,0.2276,0.2386,0.2428,0.2461,0.2432,0.277,0.2764,0.2821,0.2839,0.2855,0.275,0,0,0,0,0]},{"header":{"parameterUnit":"m.s-1","parameterCategory":2,"la1":30.2991,"la2":30.254,"lo1":-89.0895,"lo2":-89.0444,"dy":0.0017,"dx":0.0017,"nx":28,"ny":28,"refTime":"2025-01-26T03:00:00:Z","depth":"4","parameterNumber":3,"parameterNumberName":"V-component_of_CURRENTS"},"data":[0,0,0,0,0,0,0,0,0,0,0,0,0,0,0,0,0,0,0,0,0,0,0,0,0,0,0,0,0,0,0,0,0,0,0,0,0,0,0,0,0,0,0,0,0,0,0,0,0,0,0,0,0,0,0,0,0,0,0.0082,0.0082,0,0.0047,0.0047,0.0046,0.0018,0.0018,0.0018,0.0018,-0.0049,-0.0051,-0.0053,0,0,0,0,0,0,0,0,0,0,0,0,0,0.0075,0.0075,0.0082,0.0082,0.0081,0.0047,0.0047,0.0046,0.0018,0.0018,0.0018,0.0017,-0.0049,-0.0051,-0.0053,0,0,0,0,0,0,0,0,0,0,0,0,0,0.0062,0.0075,0.0082,0.0064,0.0062,0.0048,0.0047,0.0046,0.0018,0.0018,0.0018,0.0017,-0.0048,-0.0051,-0.0053,-0.0062,0,0,-0.006,-0.0061,0,0,0,0,0,0,0,0,0.0063,0.0062,0.0067,0.0065,0.0063,0.0038,0.002,0.0009,0.0018,0.0034,0.0018,0.0017,-0.0022,-0.0027,-0.0034,-0.0065,-0.0068,-0.0061,-0.0062,-0.0063,-0.0064,0,0,0,0,0,0,0,0.0064,0.0063,0.0067,0.0067,0.0064,0.0041,0.0039,0.0017,0.0006,0.0032,0.0031,0.0028,-0.0024,-0.0031,-0.0036,-0.0069,-0.0061,-0.0063,-0.0064,-0.0065,-0.0113,-0.0112,0,0,0,0,0,0,0.0073,0.0064,0.0068,0.0066,0.0063,0.0042,0.0039,0.0045,0.0007,0.0002,0.0029,0.0027,-0.0027,-0.0033,-0.0038,-0.004,-0.0063,-0.0065,-0.0067,-0.0113,-0.0112,-0.0112,0,0,0,0,0,0,0.0073,0.0074,0.007,0.0065,0.0063,0.0042,0.0049,0.0045,0.004,0.0005,-0.0001,0.0028,-0.0028,-0.0035,-0.0051,-0.0043,-0.0066,-0.0069,-0.0113,-0.0113,-0.0112,-0.005,0,0,0,0,0,0,0.0073,0.0075,0.0081,0.0066,0.0063,0.0069,0.0049,0.0044,0.0039,0.0037,0.0002,-0.0004,-0.0028,-0.0047,-0.0053,-0.0047,-0.007,-0.0113,-0.0113,-0.0112,-0.0052,-0.0047,-0.0043,0,0,0,0,0,0.0073,0.0088,0.0082,0.0082,0.0074,0.0069,0.0066,0.0049,0.004,0.0042,0.0019,-0.0003,-0.005,-0.0049,-0.0056,-0.005,-0.0113,-0.0113,-0.0112,-0.0054,-0.0048,-0.0043,0,0,0,0,0,0,0.0089,0.0086,0.0079,0.0093,0.0084,0.0065,0.0066,0.0054,0.0038,0.0035,0.0001,-0.0007,-0.0019,-0.0044,-0.0042,-0.0064,-0.0086,-0.0087,-0.0039,-0.0034,-0.003,-0.0015,-0.0072,0,0,0,0,0,0.0096,0.0106,0.0096,0.0106,0.0104,0.0085,0.0081,0.0071,0.0055,0.0048,0.0024,-0.0003,-0.0024,-0.0035,-0.0058,-0.0068,-0.0104,-0.0071,-0.0066,-0.0062,-0.0056,-0.0099,-0.0097,-0.0111,-0.0111,-0.0111,0,0,0.0104,0.0104,0.0109,0.0109,0.01,0.0109,0.0082,0.0081,0.0088,0.0042,0.0043,0.0012,-0.0023,-0.0033,-0.0042,-0.0052,-0.008,-0.0062,-0.0058,-0.0054,-0.0098,-0.0097,-0.0096,-0.0111,-0.0111,-0.0111,0,0,0.0127,0.0126,0.0142,0.0141,0.0135,0.0126,0.013,0.0115,0.0108,0.0102,0.0071,0.0049,0.0017,-0.0004,-0.002,-0.0007,-0.0056,-0.0017,0.0018,-0.0023,-0.0022,-0.0022,-0.0075,-0.008,-0.0015,-0.0014,-0.0014,0,0.0136,0.0158,0.0145,0.016,0.0167,0.0139,0.016,0.015,0.0132,0.0129,0.011,0.0063,0.0032,0.0019,0.0023,0.0004,-0.0033,0.0004,-0.0017,-0.0017,-0.0018,-0.0073,-0.0079,-0.0011,-0.0012,-0.0012,-0.0012,0,0.0171,0.0189,0.0199,0.0213,0.0216,0.0229,0.0218,0.0216,0.0201,0.0187,0.0168,0.0123,0.0095,0.0079,0.0056,0.0039,0.001,-0.0006,-0.0027,-0.0013,-0.0072,-0.0079,-0.0007,-0.0008,-0.0009,-0.001,0,0,0.0191,0.0219,0.0223,0.0244,0.0248,0.0258,0.0269,0.0272,0.0284,0.0248,0.025,0.0206,0.0175,0.0154,0.0116,0.0078,0.0037,0.004,0.0037,-0.0007,-0.0066,-0.0073,-0.0083,0.0018,0.0017,0.0017,-0.0109,0,0.0223,0.0269,0.0273,0.0318,0.0342,0.0331,0.035,0.0347,0.033,0.0323,0.0267,0.0253,0.0206,0.0193,0.0149,0.0071,0.0022,0.0072,-0.0079,-0.0083,-0.0086,-0.009,0.0014,-0.0115,-0.0116,-0.0118,-0.0119,0,0.0255,0.0286,0.0338,0.0383,0.0393,0.0416,0.044,0.0454,0.0433,0.0421,0.0385,0.0335,0.0281,0.0236,0.0103,0.0137,0.0043,-0.0028,-0.0035,-0.0066,-0.0104,-0.0132,-0.0133,-0.0132,-0.0131,-0.013,-0.0129,0,0.028,0.0331,0.0379,0.0393,0.0436,0.0459,0.0482,0.0483,0.0513,0.0481,0.0483,0.0401,0.0367,0.0244,0.0097,0.0099,-0.0063,-0.008,-0.0184,-0.0186,-0.017,-0.0169,-0.0184,-0.0184,-0.0183,-0.0183,-0.0183,0,0.0312,0.0351,0.0398,0.0426,0.0495,0.0504,0.0571,0.0573,0.0592,0.0631,0.054,0.0532,0.0368,0.0254,0.0111,-0.0057,-0.0056,-0.0179,-0.0215,-0.0143,-0.0137,-0.0177,-0.0174,-0.0188,-0.0187,-0.0186,-0.0185,0,0.0331,0.0358,0.0423,0.0483,0.051,0.056,0.0651,0.07,0.0695,0.0737,0.0731,0.0633,0.0484,0.0298,0.0092,-0.0026,-0.0195,-0.0261,-0.0178,-0.0207,-0.0299,-0.0292,-0.0383,-0.0385,-0.0386,-0.0386,-0.0387,0,0.0344,0.0378,0.0471,0.0526,0.056,0.0643,0.0712,0.0753,0.0806,0.0799,0.0818,0.0687,0.0594,0.03,0.0095,-0.0192,-0.0232,-0.0329,-0.0307,-0.0292,-0.0318,-0.0309,-0.0301,-0.0389,-0.0389,-0.0389,-0.039,0,0.0377,0.0411,0.0472,0.0586,0.0671,0.077,0.086,0.091,0.0953,0.0941,0.0898,0.0735,0.0559,0.0318,0.0088,-0.0116,-0.0266,-0.0341,-0.034,-0.032,-0.03,-0.0323,-0.0313,-0.0393,-0.0393,-0.0392,-0.0392,0,0.041,0.0459,0.0549,0.0651,0.0761,0.0868,0.0913,0.0974,0.1024,0.1004,0.0986,0.0783,0.0666,0.0355,0.0147,-0.0058,-0.011,-0.0173,-0.0182,-0.0181,-0.0086,-0.0028,-0.0067,0,0,0,0,0,0.044,0.0507,0.0609,0.0729,0.084,0.0904,0.1005,0.104,0.1069,0.1057,0.1028,0.0861,0.0551,0.041,0.0207,0.0114,-0.0155,-0.0134,-0.0235,-0.0413,-0.0409,-0.0331,0,0,0,0,0,0,0.0467,0.0561,0.0617,0.0778,0.0866,0.0996,0.1064,0.1084,0.1073,0.1058,0.0899,0.0805,0.0504,0.0672,0.0202,0.0136,0.0043,-0.0285,-0.0289,-0.0415,-0.0411,-0.0408,-0.0327,0,0,0,0,0]}]]